Regional Weather Roundup
Issued by NWS

Home | Current Version | Previous Version | Text Only | Print | Product List | Glossary On
Versions: 1 2 3 4 5 6 7 8 9 10 11 12 13 14 15 16 17 18 19 20 21 22 23 24 25 26 27 28 29 30 31 32 33 34 35 36 37 38 39 40 41 42 43 44 45 46 47 48 49 50
000
ASUS44 KFWD 290715
RWRTX
NORTH TEXAS HOURLY WEATHER ROUNDUP
NATIONAL WEATHER SERVICE FORT WORTH TX
100 AM CST SAT NOV 29 2014

NOTE: "FAIR" INDICATES FEW OR NO CLOUDS BELOW 12,000 FEET WITH NO
SIGNIFICANT WEATHER AND/OR OBSTRUCTIONS TO VISIBILITY.

TXZ118-119-290800-
DALLAS/FORT WORTH METROPLEX

CITY           SKY/WX    TMP DP  RH WIND       PRES   REMARKS
DFW AIRPORT    PTCLDY    58  46  64 S16       29.95F
DALLAS LOVE    PTCLDY    61  47  59 S13       29.97F
FTW MEACHAM    CLEAR     58  46  64 S13       29.95F
DAL-EXECUTIVE  CLEAR     62  46  55 S9G20     29.97F
FTW-ALLIANCE   PTCLDY    57  46  66 S10       29.95F
FTW-SPINKS     CLEAR     55  46  70 S9        29.98F
ARLINGTON      CLEAR     60  46  59 S8        29.97F
GRAND PRAIRIE  CLEAR     58  48  69 S7        29.99F
ADDISON        PTCLDY    60  50  68 S12G18    29.98F
MESQUITE       CLEAR     52  47  82 S7        30.00S
LANCASTER      CLEAR     55  45  68 S9        30.01S
$$

TXZ091>094-102>105-117-120-121-131>134-290800-
NORTH CENTRAL TEXAS

CITY           SKY/WX    TMP DP  RH WIND       PRES   REMARKS
SHRMAN/DENISON PTCLDY    60  49  68 S22G28    29.93S
BOWIE          CLEAR     57  44  62 S16G23    29.90F
BRIDGEPORT     CLEAR     58  46  62 SW12G18   29.95S
DECATUR        CLEAR     57  44  60 SW12      29.94S
DENTON         CLEAR     57  46  66 S14       29.94F
MCKINNEY       PTCLDY    56  46  69 S14       29.95F
GREENVILLE     CLEAR     59  50  72 S16       29.98F
ROCKWALL       CLEAR     55  48  78 S15       29.97F
TERRELL        CLEAR     58  51  78 S10       30.01S
WAXAHACHIE     CLEAR     53  47  79 SE3       30.01R
CLEBURNE       CLEAR     52  46  82 S7        30.00F
GRANBURY       CLEAR     58  47  66 S7        29.99S
$$

TXZ083>090-098>101-113>116-127>130-139>142-154-155-290800-
WESTERN NORTH TEXAS

CITY           SKY/WX    TMP DP  RH WIND       PRES   REMARKS
WICHITA FALLS  CLEAR     58  41  53 SW20      29.84F
WF-KICKAPOO    CLEAR     58  40  51 SW9G18    29.87F
VERNON         CLEAR     55  37  50 SW13      29.83F
ABILENE        CLEAR     56  42  59 S17G28    29.98F
ABILENE-DYESS  CLEAR     56  42  59 SW18      29.95S
BRECKENRIDGE   CLEAR     59  43  55 SW16G22   29.94F
GRAHAM         CLEAR     58  45  63 S10G16    29.92S
MINERAL WELLS  CLEAR     59  44  57 S13G24    29.95S
STEPHENVILLE   CLEAR     55  45  69 SW9       30.01F
COMANCHE       CLEAR     55  47  74 S13G20    30.00F
BROWNWOOD      CLEAR     50  45  81 MISG      30.01F
COLEMAN        CLEAR     53  45  75 SW9       30.00F
BRADY          CLEAR     54  45  71 S12       30.03F
$$

TXZ143>147-156>162-174-175-290800-
CENTRAL TEXAS

CITY           SKY/WX    TMP DP  RH WIND       PRES   REMARKS
WACO           CLEAR     58  48  69 S17G25    30.02F
WACO-MCGREGOR  CLEAR     55  43  62 S15G22    30.03F
HILLSBORO      CLEAR     53  45  74 S6        30.01S
CORSICANA      CLEAR     58  50  75 S14       30.03F
MEXIA          CLEAR     58  51  79 S15G22    30.03F
HEARNE         CLEAR     53  51  93 SE6       30.09F
CAMERON        CLEAR     57  53  84 S10       30.06F
TEMPLE         CLEAR     52  45  76 S14       30.03F
KILLEEN        CLEAR     57  48  73 S12G18    30.04F
KILLEEN-SKYLRK CLEAR     55  45  67 S9        30.03F
FORT HOOD      CLEAR     58  49  72 S10       30.03F
GATESVILLE     CLEAR     57  46  67 S9G16     30.04F
HAMILTON       CLEAR     51  45  81 S8        30.02S
LAMPASAS       CLEAR     57  49  74 S7        30.03F
$$

TXZ095>097-106>112-122>126-135>138-148>153-164>167-290800-
EAST TEXAS

CITY           SKY/WX    TMP DP  RH WIND       PRES   REMARKS
PARIS          CLEAR     52  48  87 S8        29.98S
SULPHUR SPRNGS CLEAR     58  51  78 S14       30.00F
MOUNT PLEASANT CLEAR     57  53  86 S12       30.02F
MINEOLA        CLEAR     57  54  88 S7        30.02S
TYLER          CLEAR     58  53  84 S13       30.02F
LONGVIEW       CLEAR     58  54  86 S14       30.04F
MARSHALL       CLEAR     58  55  90 S9        30.07S
ATHENS         CLEAR     54  52  94 S8        30.02F
PALESTINE      CLEAR     57  55  94 S9        30.07S
JACKSONVILLE   CLEAR     57  55  95 S12       30.07F
HENDERSON      CLEAR     56  55  95 S7        30.06F
NACOGDOCHES    PTCLDY    54  52  94 S5        30.09F
LUFKIN         FOG       54  51  90 SE5       30.09F VSB 3/4
$$

SUPPLEMENTAL OBSERVATIONS (CENTRAL)

CITY           SKY/WX    TMP DP  RH WIND       PRES   REMARKS
LAKE TEXOMA      N/A     63  46  55 SW21        N/A
CADDO GRASSLND   N/A     61  46  59 S16G23      N/A
PAT MAYSE LAKE   N/A     52  46  82 SE7         N/A
GREENVILLE       N/A     55  48  76 S12         N/A
CEDAR HILL       N/A     57  45  62 S9          N/A
ATHENS           N/A     57  54  88 S10         N/A
LAKE LIMESTONE   N/A     57  52  82 S9G18       N/A
MCGREGOR         N/A     52  46  82 SW7         N/A
TEMPLE           N/A     54  48  82 S14         N/A
$$

SUPPLEMENTAL OBSERVATIONS (WEST)

CITY           SKY/WX    TMP DP  RH WIND       PRES   REMARKS
MILLERS CREEK    N/A     54  36  50 SW15        N/A
GRANBURY         N/A     57  45  62 S9          N/A
HAMBY            N/A     55  41  58 SW16        N/A
IVIE RESERVOIR   N/A     57  43  58 S9          N/A
COLORADO BEND    N/A     54  45  71 S7          N/A
$$

SUPPLEMENTAL OBSERVATIONS (EAST)

CITY           SKY/WX    TMP DP  RH WIND       PRES   REMARKS
CLARKSVILLE      N/A     54  48  82 S8          N/A
TEXARKANA        N/A     54  50  87 S3          N/A
LINDEN           N/A     54  48  82 S2          N/A
CADDO LAKE       N/A     55  52  88 S3          N/A
GILMER           N/A     55  50  82 S5          N/A
HENDERSON        N/A     55  52  88 S12         N/A
LUFKIN           N/A     52  48  87 MISG        N/A
N SABINE NF      N/A     57  54  88 MISG        N/A
S SABINE NF      N/A     57  54  88 S2          N/A
$$

SUPPLEMENTAL OBSERVATIONS ARE A COLLECTION OF AUTOMATED INSTRUMENTS
THAT ARE MAINTAINED BY A VARIETY OF FEDERAL AND STATE AGENCIES.
CERTAIN ELEMENTS...SUCH AS HUMIDITY VALUES AND SUSTAINED WIND
SPEEDS...MAY BE APPROXIMATED.




USA.gov is the U.S. government's official web portal to all federal, state and local government web resources and services.